| time (UTC) | temp F | wind direction | speed MPH | gust MPH | rain 1hr in | rain 24hr in | rain mn in | humidity % | barometer mb |
| 20260502152014 | 48 | 114 | 3.0 | 13.0 | 0.00 | 0.00 | 0.00 | 43 | 1019.3 |
| 20260502151529 | 49 | 352 | 3.0 | 13.0 | 0.00 | 0.00 | 0.00 | 43 | 1019.4 |
| 20260502151011 | 49 | 219 | 4.0 | 11.0 | 0.00 | 0.00 | 0.00 | 46 | 1019.4 |
| 20260502150511 | 48 | 244 | 3.0 | 12.0 | 0.00 | 0.00 | 0.00 | 46 | 1019.4 |
| 20260502130502 | 41 | 196 | 3.0 | 5.0 | 0.00 | 0.00 | 0.00 | 71 | 1019.8 |
| 20260502123505 | 38 | 208 | 1.0 | 2.0 | 0.00 | 0.00 | 0.00 | 82 | 1019.9 |
| 20260502123005 | 37 | 228 | 1.0 | 2.0 | 0.00 | 0.00 | 0.00 | 82 | 1019.9 |
| 20260502122503 | 37 | 228 | 0.0 | 2.0 | 0.00 | 0.00 | 0.00 | 83 | 1019.9 |
| 20260502122002 | 36 | 228 | 0.0 | 2.0 | 0.00 | 0.00 | 0.00 | 84 | 1019.8 |
| 20260502121507 | 35 | 228 | 0.0 | 2.0 | 0.00 | 0.00 | 0.00 | 85 | 1019.8 |
| 20260502121004 | 34 | 228 | 0.0 | 2.0 | 0.00 | 0.00 | 0.00 | 86 | 1019.8 |
| 20260502120502 | 33 | 228 | 0.0 | 2.0 | 0.00 | 0.00 | 0.00 | 87 | 1019.8 |
| 20260502115504 | 32 | 228 | 0.0 | 2.0 | 0.00 | 0.00 | 0.00 | 88 | 1019.9 |
| 20260502115003 | 32 | 228 | 0.0 | 2.0 | 0.00 | 0.00 | 0.00 | 88 | 1019.8 |
| 20260502114503 | 31 | 228 | 0.0 | 2.0 | 0.00 | 0.00 | 0.00 | 88 | 1019.8 |
| 20260502114004 | 31 | 228 | 0.0 | 2.0 | 0.00 | 0.00 | 0.00 | 89 | 1019.8 |
| 20260502113506 | 31 | 228 | 0.0 | 2.0 | 0.00 | 0.00 | 0.00 | 89 | 1019.7 |
| 20260502113013 | 30 | 228 | 0.0 | 2.0 | 0.00 | 0.00 | 0.00 | 90 | 1019.6 |
| 20260502112503 | 30 | 228 | 0.0 | 2.0 | 0.00 | 0.00 | 0.00 | 90 | 1019.6 |
| 20260502112003 | 30 | 228 | 0.0 | 2.0 | 0.00 | 0.00 | 0.00 | 90 | 1019.6 |
| 20260502111507 | 30 | 228 | 0.0 | 1.0 | 0.00 | 0.00 | 0.00 | 90 | 1019.5 |
| 20260502111003 | 29 | 228 | 0.0 | 1.0 | 0.00 | 0.00 | 0.00 | 90 | 1019.4 |
| 20260502110502 | 29 | 228 | 0.0 | 1.0 | 0.00 | 0.00 | 0.00 | 90 | 1019.4 |
| 20260502110010 | 29 | 228 | 0.0 | 2.0 | 0.00 | 0.00 | 0.00 | 90 | 1019.4 |
| 20260502105503 | 29 | 228 | 0.0 | 2.0 | 0.00 | 0.00 | 0.00 | 90 | 1019.4 |
| 20260502105003 | 29 | 228 | 0.0 | 2.0 | 0.00 | 0.00 | 0.00 | 90 | 1019.4 |
| 20260502104534 | 29 | 228 | 0.0 | 2.0 | 0.00 | 0.00 | 0.00 | 90 | 1019.4 |
| 20260502104003 | 29 | 228 | 0.0 | 2.0 | 0.00 | 0.00 | 0.00 | 90 | 1019.5 |
| 20260502103503 | 29 | 228 | 0.0 | 2.0 | 0.00 | 0.00 | 0.00 | 90 | 1019.4 |
| 20260502103010 | 29 | 228 | 0.0 | 2.0 | 0.00 | 0.00 | 0.00 | 90 | 1019.5 |
| 20260502102502 | 29 | 228 | 1.0 | 1.0 | 0.00 | 0.00 | 0.00 | 90 | 1019.5 |
| 20260502102003 | 29 | 228 | 0.0 | 1.0 | 0.00 | 0.00 | 0.00 | 90 | 1019.5 |
| 20260502101510 | 29 | 228 | 0.0 | 1.0 | 0.00 | 0.00 | 0.00 | 90 | 1019.5 |
| 20260502101003 | 29 | 228 | 0.0 | 2.0 | 0.00 | 0.00 | 0.00 | 90 | 1019.4 |
| 20260502100503 | 29 | 228 | 0.0 | 2.0 | 0.00 | 0.00 | 0.00 | 90 | 1019.3 |
| 20260502091520 | 30 | 228 | 0.0 | 2.0 | 0.00 | 0.00 | 0.00 | 90 | 1019.3 |
| 20260502091004 | 30 | 228 | 0.0 | 2.0 | 0.00 | 0.00 | 0.00 | 90 | 1019.3 |
| 20260502090504 | 30 | 228 | 1.0 | 2.0 | 0.00 | 0.00 | 0.00 | 90 | 1019.4 |
| 20260502071004 | 31 | 221 | 0.0 | 2.0 | 0.00 | 0.00 | 0.00 | 88 | 1019.3 |
| 20260502070505 | 31 | 221 | 0.0 | 2.0 | 0.00 | 0.00 | 0.00 | 88 | 1019.3 |
| 20260502070022 | 31 | 221 | 0.0 | 2.0 | 0.00 | 0.00 | 0.00 | 88 | 1019.3 |
| 20260502065504 | 31 | 221 | 1.0 | 2.0 | 0.00 | 0.00 | 0.00 | 87 | 1019.4 |
| 20260502065007 | 31 | 221 | 0.0 | 2.0 | 0.00 | 0.00 | 0.00 | 87 | 1019.4 |
| 20260502064521 | 31 | 221 | 0.0 | 2.0 | 0.00 | 0.00 | 0.00 | 87 | 1019.4 |
| 20260502064003 | 32 | 221 | 0.0 | 2.0 | 0.00 | 0.00 | 0.00 | 87 | 1019.4 |
| 20260502063506 | 32 | 221 | 0.0 | 2.0 | 0.00 | 0.00 | 0.00 | 88 | 1019.3 |
| 20260502063019 | 32 | 221 | 1.0 | 2.0 | 0.00 | 0.00 | 0.00 | 87 | 1019.3 |
| 20260502062503 | 32 | 221 | 1.0 | 2.0 | 0.00 | 0.00 | 0.00 | 87 | 1019.4 |
| 20260502062006 | 32 | 221 | 1.0 | 2.0 | 0.00 | 0.00 | 0.00 | 87 | 1019.4 |
| 20260502061520 | 32 | 221 | 1.0 | 1.0 | 0.00 | 0.00 | 0.00 | 87 | 1019.5 |
| 20260502061003 | 32 | 221 | 0.0 | 2.0 | 0.00 | 0.00 | 0.00 | 87 | 1019.5 |
| 20260502060507 | 32 | 221 | 0.0 | 2.0 | 0.00 | 0.00 | 0.00 | 87 | 1019.5 |
| 20260502060022 | 32 | 221 | 0.0 | 2.0 | 0.00 | 0.00 | 0.00 | 87 | 1019.5 |
| 20260502055503 | 32 | 221 | 0.0 | 2.0 | 0.00 | 0.00 | 0.00 | 86 | 1019.5 |
| 20260502055010 | 32 | 221 | 0.0 | 2.0 | 0.00 | 0.00 | 0.00 | 86 | 1019.6 |
| 20260502054521 | 32 | 221 | 0.0 | 2.0 | 0.00 | 0.00 | 0.00 | 86 | 1019.5 |
| 20260502054004 | 32 | 221 | 0.0 | 2.0 | 0.00 | 0.00 | 0.00 | 86 | 1019.6 |
| 20260502053508 | 32 | 221 | 0.0 | 2.0 | 0.00 | 0.00 | 0.00 | 86 | 1019.5 |
| 20260502053022 | 32 | 221 | 0.0 | 2.0 | 0.00 | 0.00 | 0.00 | 86 | 1019.5 |
| 20260502052506 | 32 | 221 | 0.0 | 2.0 | 0.00 | 0.00 | 0.00 | 86 | 1019.5 |
| 20260502052006 | 33 | 221 | 0.0 | 2.0 | 0.00 | 0.00 | 0.00 | 85 | 1019.5 |
| 20260502051536 | 33 | 221 | 0.0 | 2.0 | 0.00 | 0.00 | 0.00 | 85 | 1019.5 |
| 20260502051008 | 33 | 221 | 1.0 | 2.0 | 0.00 | 0.01 | 0.00 | 84 | 1019.4 |
| 20260502050506 | 33 | 221 | 0.0 | 2.0 | 0.00 | 0.01 | 0.00 | 84 | 1019.4 |
| 20260502050024 | 33 | 221 | 0.0 | 2.0 | 0.00 | 0.01 | 0.00 | 84 | 1019.4 |
| 20260502045504 | 33 | 221 | 0.0 | 2.0 | 0.00 | 0.01 | 0.01 | 83 | 1019.5 |
| 20260502045008 | 33 | 221 | 0.0 | 2.0 | 0.00 | 0.01 | 0.01 | 83 | 1019.5 |
| 20260502044524 | 34 | 221 | 0.0 | 2.0 | 0.00 | 0.01 | 0.01 | 83 | 1019.5 |
| 20260502044005 | 34 | 221 | 0.0 | 2.0 | 0.00 | 0.01 | 0.01 | 83 | 1019.5 |
| 20260502043507 | 34 | 221 | 0.0 | 2.0 | 0.00 | 0.01 | 0.01 | 83 | 1019.5 |
| 20260502043024 | 34 | 221 | 0.0 | 2.0 | 0.00 | 0.01 | 0.01 | 82 | 1019.5 |
| 20260502042505 | 34 | 221 | 0.0 | 2.0 | 0.00 | 0.01 | 0.01 | 81 | 1019.5 |
| 20260502042010 | 34 | 221 | 0.0 | 2.0 | 0.00 | 0.01 | 0.01 | 81 | 1019.4 |
| 20260502041526 | 34 | 221 | 0.0 | 2.0 | 0.00 | 0.01 | 0.01 | 81 | 1019.4 |
| 20260502041005 | 34 | 221 | 0.0 | 2.0 | 0.00 | 0.01 | 0.01 | 81 | 1019.3 |
| 20260502040509 | 34 | 221 | 0.0 | 2.0 | 0.00 | 0.02 | 0.01 | 80 | 1019.3 |
| 20260502040026 | 35 | 221 | 0.0 | 2.0 | 0.00 | 0.02 | 0.01 | 80 | 1019.3 |
| 20260502035505 | 35 | 221 | 0.0 | 2.0 | 0.00 | 0.02 | 0.01 | 79 | 1019.3 |
| 20260502035010 | 35 | 221 | 0.0 | 2.0 | 0.00 | 0.02 | 0.01 | 79 | 1019.4 |
| 20260502034537 | 35 | 221 | 0.0 | 2.0 | 0.00 | 0.03 | 0.01 | 78 | 1019.4 |
| 20260502034007 | 35 | 221 | 0.0 | 2.0 | 0.00 | 0.03 | 0.01 | 79 | 1019.3 |
| 20260502033509 | 35 | 221 | 0.0 | 2.0 | 0.00 | 0.03 | 0.01 | 78 | 1019.3 |
| 20260502033030 | 36 | 221 | 0.0 | 2.0 | 0.00 | 0.03 | 0.01 | 77 | 1019.3 |
| 20260502032506 | 36 | 221 | 0.0 | 2.0 | 0.00 | 0.04 | 0.01 | 77 | 1019.2 |
| 20260502032011 | 36 | 221 | 1.0 | 2.0 | 0.00 | 0.04 | 0.01 | 76 | 1019.3 |
| 20260502031525 | 36 | 221 | 0.0 | 2.0 | 0.00 | 0.04 | 0.01 | 76 | 1019.3 |
| 20260502031009 | 36 | 221 | 0.0 | 2.0 | 0.00 | 0.04 | 0.01 | 76 | 1019.3 |
| 20260502030510 | 36 | 221 | 0.0 | 2.0 | 0.00 | 0.04 | 0.01 | 75 | 1019.2 |
| 20260502030020 | 36 | 221 | 1.0 | 2.0 | 0.00 | 0.04 | 0.01 | 74 | 1019.1 |
| 20260502025506 | 37 | 221 | 1.0 | 2.0 | 0.00 | 0.04 | 0.01 | 73 | 1019.2 |
| 20260502025010 | 37 | 101 | 0.0 | 2.0 | 0.00 | 0.04 | 0.01 | 71 | 1019.2 |
| 20260502024520 | 38 | 96 | 0.0 | 2.0 | 0.00 | 0.04 | 0.01 | 70 | 1019.2 |
| 20260502024010 | 38 | 96 | 0.0 | 2.0 | 0.00 | 0.04 | 0.01 | 69 | 1019.2 |
| 20260502023512 | 38 | 96 | 0.0 | 2.0 | 0.00 | 0.04 | 0.01 | 67 | 1019.1 |
| 20260502023027 | 38 | 96 | 0.0 | 2.0 | 0.00 | 0.04 | 0.01 | 67 | 1019.2 |
| 20260502022506 | 38 | 96 | 0.0 | 2.0 | 0.00 | 0.04 | 0.01 | 66 | 1019.2 |
| 20260502022009 | 38 | 96 | 0.0 | 2.0 | 0.00 | 0.04 | 0.01 | 67 | 1019.2 |
| 20260502021523 | 39 | 96 | 0.0 | 2.0 | 0.00 | 0.04 | 0.01 | 67 | 1019.1 |
| 20260502021006 | 38 | 96 | 0.0 | 2.0 | 0.00 | 0.04 | 0.01 | 67 | 1019.2 |
| 20260502020511 | 38 | 96 | 0.0 | 2.0 | 0.00 | 0.04 | 0.01 | 67 | 1019.1 |
| 20260502020023 | 39 | 96 | 0.0 | 2.0 | 0.00 | 0.04 | 0.01 | 67 | 1019.0 |
| 20260502015509 | 39 | 96 | 0.0 | 1.0 | 0.00 | 0.04 | 0.01 | 66 | 1018.9 |
| 20260502015012 | 39 | 96 | 0.0 | 2.0 | 0.00 | 0.04 | 0.01 | 66 | 1018.9 |
| 20260502014526 | 39 | 96 | 0.0 | 2.0 | 0.00 | 0.04 | 0.01 | 65 | 1018.9 |
| 20260502014013 | 39 | 96 | 1.0 | 2.0 | 0.00 | 0.04 | 0.01 | 64 | 1018.9 |
| 20260502013508 | 39 | 94 | 1.0 | 3.0 | 0.00 | 0.04 | 0.01 | 63 | 1018.8 |
| 20260502013024 | 40 | 101 | 1.0 | 3.0 | 0.00 | 0.04 | 0.01 | 64 | 1018.8 |
| 20260502012510 | 40 | 92 | 1.0 | 6.0 | 0.00 | 0.04 | 0.01 | 63 | 1018.7 |
| 20260502012014 | 40 | 114 | 2.0 | 6.0 | 0.00 | 0.04 | 0.01 | 63 | 1018.7 |
| 20260502011529 | 40 | 88 | 1.0 | 4.0 | 0.00 | 0.04 | 0.01 | 63 | 1018.7 |
| 20260502011008 | 40 | 114 | 2.0 | 4.0 | 0.00 | 0.04 | 0.01 | 63 | 1018.6 |
| 20260502010510 | 40 | 46 | 1.0 | 3.0 | 0.00 | 0.04 | 0.01 | 62 | 1018.5 |
| 20260502010025 | 41 | 88 | 1.0 | 4.0 | 0.00 | 0.04 | 0.01 | 62 | 1018.5 |
| 20260502005511 | 41 | 109 | 1.0 | 4.0 | 0.00 | 0.04 | 0.01 | 61 | 1018.4 |
| 20260502005010 | 41 | 121 | 1.0 | 4.0 | 0.00 | 0.04 | 0.01 | 61 | 1018.4 |
| 20260502004527 | 41 | 101 | 2.0 | 4.0 | 0.00 | 0.04 | 0.01 | 60 | 1018.4 |
| 20260502004011 | 42 | 89 | 2.0 | 4.0 | 0.00 | 0.04 | 0.01 | 60 | 1018.4 |
| 20260502003511 | 42 | 103 | 2.0 | 3.0 | 0.00 | 0.04 | 0.01 | 60 | 1018.3 |
| 20260502003024 | 42 | 82 | 1.0 | 2.0 | 0.00 | 0.04 | 0.01 | 59 | 1018.2 |
| 20260502002509 | 42 | 207 | 0.0 | 2.0 | 0.00 | 0.04 | 0.01 | 59 | 1018.0 |
| 20260502002011 | 42 | 253 | 0.0 | 3.0 | 0.00 | 0.04 | 0.01 | 59 | 1018.1 |
| 20260502001526 | 43 | 253 | 0.0 | 3.0 | 0.00 | 0.04 | 0.01 | 58 | 1018.0 |
| 20260502001010 | 43 | 241 | 2.0 | 4.0 | 0.00 | 0.04 | 0.01 | 59 | 1017.9 |
| 20260502000512 | 43 | 232 | 2.0 | 4.0 | 0.00 | 0.04 | 0.01 | 58 | 1018.0 |
| 20260502000028 | 43 | 217 | 0.0 | 4.0 | 0.00 | 0.04 | 0.01 | 58 | 1017.9 |
| 20260501235511 | 43 | 237 | 0.0 | 4.0 | 0.00 | 0.04 | 0.01 | 58 | 1017.9 |
| 20260501235007 | 43 | 242 | 1.0 | 3.0 | 0.00 | 0.04 | 0.01 | 59 | 1017.9 |
| 20260501234531 | 43 | 148 | 0.0 | 2.0 | 0.00 | 0.04 | 0.01 | 59 | 1018.0 |
| 20260501234007 | 43 | 148 | 1.0 | 2.0 | 0.00 | 0.04 | 0.01 | 57 | 1018.0 |
| 20260501233511 | 43 | 251 | 0.0 | 3.0 | 0.00 | 0.04 | 0.01 | 58 | 1018.0 |
| 20260501233028 | 43 | 340 | 1.0 | 3.0 | 0.00 | 0.04 | 0.01 | 58 | 1018.0 |
| 20260501232509 | 43 | 312 | 1.0 | 3.0 | 0.00 | 0.04 | 0.01 | 59 | 1018.0 |
| 20260501232015 | 42 | 334 | 0.0 | 3.0 | 0.00 | 0.04 | 0.01 | 59 | 1018.2 |
| 20260501231538 | 43 | 51 | 0.0 | 3.0 | 0.00 | 0.04 | 0.01 | 59 | 1018.3 |
| 20260501231010 | 43 | 53 | 1.0 | 2.0 | 0.00 | 0.04 | 0.01 | 57 | 1018.3 |
| 20260501230507 | 43 | 33 | 0.0 | 3.0 | 0.00 | 0.04 | 0.01 | 58 | 1018.3 |
| 20260501230008 | 43 | 52 | 0.0 | 3.0 | 0.00 | 0.04 | 0.01 | 58 | 1018.2 |
| 20260501225506 | 43 | 94 | 2.0 | 3.0 | 0.00 | 0.04 | 0.01 | 57 | 1018.3 |
| 20260501225003 | 43 | 92 | 1.0 | 3.0 | 0.00 | 0.04 | 0.01 | 56 | 1018.3 |
| 20260501224528 | 44 | 261 | 0.0 | 4.0 | 0.00 | 0.04 | 0.01 | 58 | 1018.3 |
| 20260501224005 | 43 | 234 | 0.0 | 5.0 | 0.00 | 0.04 | 0.01 | 60 | 1018.4 |
| 20260501223511 | 42 | 153 | 2.0 | 5.0 | 0.00 | 0.04 | 0.01 | 61 | 1018.4 |
| 20260501223011 | 42 | 147 | 2.0 | 5.0 | 0.00 | 0.04 | 0.01 | 60 | 1018.4 |
| 20260501222509 | 42 | 124 | 3.0 | 5.0 | 0.00 | 0.04 | 0.01 | 60 | 1018.4 |
| 20260501222011 | 42 | 144 | 1.0 | 3.0 | 0.00 | 0.04 | 0.01 | 62 | 1018.3 |
| 20260501221514 | 42 | 122 | 1.0 | 4.0 | 0.00 | 0.04 | 0.01 | 62 | 1018.3 |
| 20260501221010 | 41 | 126 | 1.0 | 6.0 | 0.00 | 0.04 | 0.01 | 62 | 1018.3 |
| 20260501220503 | 42 | 82 | 2.0 | 7.0 | 0.00 | 0.04 | 0.01 | 64 | 1018.3 |
| 20260501220015 | 41 | 94 | 1.0 | 7.0 | 0.00 | 0.04 | 0.01 | 64 | 1018.3 |
| 20260501215507 | 41 | 125 | 2.0 | 7.0 | 0.00 | 0.04 | 0.01 | 67 | 1018.3 |
| 20260501215003 | 41 | 96 | 2.0 | 7.0 | 0.00 | 0.04 | 0.01 | 67 | 1018.4 |
| 20260501214544 | 41 | 80 | 2.0 | 10.0 | 0.00 | 0.04 | 0.01 | 68 | 1018.3 |
| 20260501214008 | 40 | 90 | 2.0 | 10.0 | 0.00 | 0.04 | 0.01 | 69 | 1018.3 |
| 20260501213502 | 40 | 105 | 2.0 | 8.0 | 0.00 | 0.04 | 0.01 | 69 | 1018.4 |
| 20260501213014 | 40 | 69 | 2.0 | 9.0 | 0.00 | 0.04 | 0.01 | 67 | 1018.4 |
| 20260501212505 | 40 | 73 | 3.0 | 9.0 | 0.00 | 0.04 | 0.01 | 66 | 1018.2 |
| 20260501212002 | 40 | 67 | 5.0 | 12.0 | 0.00 | 0.04 | 0.01 | 63 | 1018.1 |
| 20260501211521 | 41 | 146 | 3.0 | 12.0 | 0.00 | 0.04 | 0.01 | 62 | 1018.1 |
| 20260501211007 | 42 | 44 | 7.0 | 12.0 | 0.00 | 0.04 | 0.01 | 63 | 1017.9 |
| 20260501210502 | 42 | 90 | 1.0 | 4.0 | 0.00 | 0.04 | 0.01 | 65 | 1017.8 |
| 20260501210018 | 42 | 69 | 1.0 | 4.0 | 0.00 | 0.04 | 0.01 | 64 | 1017.8 |
| 20260501205507 | 42 | 120 | 1.0 | 6.0 | 0.00 | 0.04 | 0.01 | 64 | 1017.8 |
| 20260501205002 | 43 | 113 | 2.0 | 6.0 | 0.00 | 0.04 | 0.01 | 62 | 1017.7 |
| 20260501204520 | 43 | 122 | 1.0 | 5.0 | 0.00 | 0.04 | 0.01 | 62 | 1017.7 |
| 20260501204010 | 43 | 152 | 3.0 | 8.0 | 0.00 | 0.04 | 0.01 | 61 | 1017.7 |
| 20260501203502 | 43 | 141 | 1.0 | 8.0 | 0.00 | 0.04 | 0.01 | 62 | 1017.7 |
| 20260501203022 | 43 | 134 | 6.0 | 8.0 | 0.00 | 0.04 | 0.01 | 60 | 1017.8 |
| 20260501202507 | 44 | 132 | 2.0 | 8.0 | 0.00 | 0.04 | 0.01 | 61 | 1017.7 |
| 20260501202006 | 44 | 174 | 4.0 | 7.0 | 0.00 | 0.04 | 0.01 | 60 | 1017.7 |
| 20260501201537 | 44 | 132 | 1.0 | 6.0 | 0.00 | 0.04 | 0.01 | 61 | 1017.7 |
| 20260501201005 | 43 | 134 | 3.0 | 6.0 | 0.00 | 0.04 | 0.01 | 61 | 1017.7 |
| 20260501200508 | 42 | 80 | 1.0 | 4.0 | 0.00 | 0.04 | 0.01 | 62 | 1017.8 |
| 20260501200030 | 42 | 145 | 1.0 | 6.0 | 0.00 | 0.04 | 0.01 | 63 | 1017.9 |
| 20260501195504 | 42 | 130 | 2.0 | 7.0 | 0.00 | 0.04 | 0.01 | 64 | 1017.8 |
| 20260501195006 | 42 | 59 | 4.0 | 8.0 | 0.00 | 0.04 | 0.01 | 63 | 1017.8 |
| 20260501194523 | 42 | 60 | 4.0 | 8.0 | 0.00 | 0.04 | 0.01 | 63 | 1017.8 |
| 20260501194003 | 42 | 81 | 3.0 | 10.0 | 0.00 | 0.04 | 0.01 | 63 | 1017.8 |
| 20260501193505 | 42 | 38 | 5.0 | 10.0 | 0.00 | 0.04 | 0.01 | 62 | 1017.7 |
| 20260501193030 | 43 | 53 | 6.0 | 10.0 | 0.00 | 0.04 | 0.01 | 60 | 1017.6 |
| 20260501192502 | 44 | 66 | 2.0 | 10.0 | 0.00 | 0.04 | 0.01 | 61 | 1017.6 |
| 20260501192005 | 43 | 270 | 1.0 | 10.0 | 0.00 | 0.04 | 0.01 | 60 | 1017.5 |
| 20260501191527 | 44 | 59 | 5.0 | 8.0 | 0.00 | 0.04 | 0.01 | 59 | 1017.5 |
| 20260501191003 | 44 | 263 | 1.0 | 6.0 | 0.00 | 0.04 | 0.01 | 59 | 1017.5 |
| 20260501190510 | 44 | 88 | 1.0 | 5.0 | 0.00 | 0.04 | 0.01 | 62 | 1017.5 |
| 20260501190024 | 42 | 22 | 0.0 | 6.0 | 0.00 | 0.04 | 0.01 | 62 | 1017.5 |
| 20260501185502 | 42 | 86 | 4.0 | 6.0 | 0.00 | 0.04 | 0.01 | 62 | 1017.4 |
| 20260501185007 | 42 | 123 | 1.0 | 6.0 | 0.00 | 0.04 | 0.01 | 63 | 1017.4 |
| 20260501184524 | 42 | 70 | 3.0 | 9.0 | 0.00 | 0.04 | 0.01 | 63 | 1017.4 |
| 20260501184003 | 42 | 59 | 3.0 | 9.0 | 0.00 | 0.04 | 0.01 | 61 | 1017.3 |
| 20260501183508 | 43 | 61 | 3.0 | 9.0 | 0.00 | 0.04 | 0.01 | 63 | 1017.2 |
| 20260501183027 | 43 | 99 | 3.0 | 6.0 | 0.00 | 0.04 | 0.01 | 63 | 1017.2 |
| 20260501182505 | 43 | 148 | 2.0 | 10.0 | 0.00 | 0.04 | 0.01 | 63 | 1017.3 |
| 20260501182010 | 43 | 144 | 5.0 | 10.0 | 0.00 | 0.04 | 0.01 | 64 | 1017.4 |
| 20260501181532 | 41 | 81 | 4.0 | 9.0 | 0.00 | 0.04 | 0.01 | 66 | 1017.4 |
| 20260501181005 | 41 | 53 | 5.0 | 9.0 | 0.00 | 0.04 | 0.01 | 65 | 1017.4 |
| 20260501180510 | 41 | 182 | 4.0 | 9.0 | 0.00 | 0.04 | 0.01 | 67 | 1017.3 |
| 20260501180035 | 42 | 60 | 4.0 | 12.0 | 0.00 | 0.04 | 0.01 | 67 | 1017.3 |
| 20260501175504 | 42 | 76 | 4.0 | 12.0 | 0.00 | 0.04 | 0.01 | 68 | 1017.4 |
| 20260501175006 | 42 | 49 | 4.0 | 10.0 | 0.00 | 0.04 | 0.01 | 66 | 1017.4 |
| 20260501174530 | 42 | 24 | 3.0 | 9.0 | 0.00 | 0.04 | 0.01 | 68 | 1017.3 |
| 20260501174007 | 42 | 73 | 5.0 | 9.0 | 0.00 | 0.04 | 0.01 | 68 | 1017.2 |
| 20260501173508 | 41 | 73 | 2.0 | 11.0 | 0.00 | 0.04 | 0.01 | 69 | 1017.3 |
| 20260501173035 | 41 | 57 | 7.0 | 12.0 | 0.00 | 0.04 | 0.01 | 69 | 1017.4 |
| 20260501172508 | 41 | 83 | 4.0 | 13.0 | 0.00 | 0.04 | 0.01 | 69 | 1017.4 |
| 20260501172010 | 41 | 81 | 8.0 | 13.0 | 0.00 | 0.04 | 0.01 | 69 | 1017.3 |
| 20260501171531 | 41 | 34 | 5.0 | 10.0 | 0.00 | 0.04 | 0.01 | 69 | 1017.3 |
| 20260501171003 | 42 | 91 | 5.0 | 12.0 | 0.00 | 0.04 | 0.01 | 69 | 1017.2 |
| 20260501170510 | 43 | 68 | 6.0 | 12.0 | 0.00 | 0.04 | 0.01 | 68 | 1017.2 |
| 20260501170021 | 43 | 109 | 5.0 | 10.0 | 0.00 | 0.04 | 0.01 | 67 | 1017.1 |
| 20260501165507 | 43 | 80 | 5.0 | 10.0 | 0.00 | 0.04 | 0.01 | 66 | 1017.1 |
| 20260501165003 | 42 | 75 | 5.0 | 10.0 | 0.00 | 0.04 | 0.01 | 66 | 1017.2 |
| 20260501164510 | 42 | 27 | 5.0 | 11.0 | 0.00 | 0.04 | 0.01 | 64 | 1017.2 |
| 20260501164008 | 42 | 57 | 7.0 | 14.0 | 0.00 | 0.04 | 0.01 | 62 | 1017.1 |
| 20260501163503 | 43 | 57 | 4.0 | 14.0 | 0.00 | 0.04 | 0.01 | 63 | 1017.1 |
| 20260501163018 | 43 | 45 | 5.0 | 10.0 | 0.00 | 0.04 | 0.01 | 58 | 1017.1 |
| 20260501162504 | 43 | 319 | 4.0 | 10.0 | 0.00 | 0.04 | 0.01 | 53 | 1017.1 |
| 20260501162002 | 44 | 335 | 4.0 | 11.0 | 0.00 | 0.04 | 0.01 | 53 | 1017.1 |
| 20260501161511 | 44 | 352 | 5.0 | 11.0 | 0.00 | 0.04 | 0.01 | 52 | 1017.0 |
| 20260501161004 | 45 | 88 | 3.0 | 10.0 | 0.00 | 0.04 | 0.01 | 51 | 1016.8 |
| 20260501160504 | 45 | 140 | 4.0 | 10.0 | 0.00 | 0.04 | 0.01 | 49 | 1016.8 |
| 20260501160021 | 46 | 58 | 2.0 | 9.0 | 0.00 | 0.04 | 0.01 | 49 | 1016.9 |
| 20260501155506 | 46 | 279 | 4.0 | 9.0 | 0.00 | 0.04 | 0.01 | 50 | 1016.9 |
| 20260501155004 | 45 | 61 | 4.0 | 14.0 | 0.00 | 0.04 | 0.01 | 50 | 1017.0 |
| 20260501154516 | 45 | 325 | 3.0 | 14.0 | 0.00 | 0.04 | 0.01 | 49 | 1016.9 |
| 20260501154003 | 46 | 32 | 3.0 | 14.0 | 0.00 | 0.04 | 0.01 | 49 | 1016.9 |
| 20260501153503 | 45 | 36 | 5.0 | 14.0 | 0.00 | 0.04 | 0.01 | 48 | 1016.9 |
| 20260501153018 | 46 | 340 | 4.0 | 10.0 | 0.00 | 0.04 | 0.01 | 47 | 1016.9 |